FW2297 Weather Reports


Display with metric or nautical units.
time (UTC)temp
F
wind
direction
speed
MPH
gust
MPH
rain 1hr
in
rain 24hr
in
rain mn
in
humidity
%
barometer
mb
20260507003555 51 0 0.0 6.0 0.01 0.41 0.41 93 1004.9
20260507003056 51 0 0.0 2.0 0.01 0.41 0.41 93 1004.7
20260507002548 51 0 0.0 5.0 0.01 0.41 0.41 92 1004.8
20260507002051 51 0 0.0 5.0 0.01 0.41 0.41 92 1004.8
20260507001554 52 0 0.0 5.0 0.01 0.41 0.41 92 1004.6
20260507001050 52 0 0.0 4.0 0.01 0.41 0.41 92 1004.4
20260507000552 52 0 0.0 4.0 0.01 0.41 0.41 92 1004.6
20260507000055 52 0 0.0 0.0 0.01 0.41 0.41 92 1004.4
20260506235550 53 0 0.0 0.0 0.02 0.41 0.41 92 1004.4
20260506235052 53 0 0.0 0.0 0.01 0.40 0.40 91 1004.3
20260506234555 53 0 0.0 0.0 0.01 0.40 0.40 91 1004.3
20260506234051 54 0 0.0 1.0 0.01 0.40 0.40 91 1004.0
20260506233552 54 0 0.0 1.0 0.01 0.40 0.40 92 1004.2
20260506233054 54 0 0.0 1.0 0.01 0.40 0.40 91 1003.9
20260506232554 55 0 0.0 4.0 0.01 0.40 0.40 91 1003.8
20260506232048 55 0 0.0 6.0 0.01 0.40 0.40 92 1003.8
20260506231556 56 0 0.0 6.0 0.01 0.40 0.40 92 1003.9
20260506231048 57 304 0.0 8.0 0.01 0.40 0.40 92 1003.8
20260506230552 57 0 0.0 8.0 0.02 0.40 0.40 92 1003.8
20260506230056 58 0 0.0 8.0 0.01 0.39 0.39 93 1003.7
20260506225551 59 0 0.0 5.0 0.01 0.40 0.39 94 1003.6
20260506225051 59 0 0.0 0.0 0.02 0.40 0.39 95 1003.5
20260506224606 59 0 0.0 0.0 0.03 0.40 0.39 95 1003.3
20260506224047 60 0 0.0 0.0 0.03 0.40 0.39 94 1003.3
20260506223550 60 0 0.0 0.0 0.04 0.40 0.39 94 1003.4
20260506223052 60 0 0.0 0.0 0.05 0.40 0.39 94 1003.4
20260506222550 60 0 0.0 0.0 0.06 0.40 0.39 94 1003.3
20260506222051 60 0 0.0 0.0 0.07 0.40 0.39 94 1003.4
20260506221554 60 0 0.0 0.0 0.07 0.40 0.39 94 1003.3
20260506221048 60 0 0.0 1.0 0.08 0.40 0.39 94 1003.4
20260506220548 60 0 0.0 5.0 0.07 0.39 0.38 94 1003.4
20260506220054 60 0 0.0 5.0 0.07 0.39 0.38 94 1003.3
20260506215548 60 0 0.0 2.0 0.08 0.42 0.38 94 1003.5
20260506215048 60 0 0.0 2.0 0.08 0.41 0.37 94 1003.4
20260506214609 60 0 0.0 1.0 0.07 0.40 0.36 94 1003.4
20260506214051 60 0 0.0 1.0 0.09 0.40 0.36 94 1003.5
20260506213548 59 0 0.0 2.0 0.09 0.39 0.35 94 1003.5
20260506213053 59 0 0.0 2.0 0.09 0.38 0.34 94 1003.6
20260506212548 60 0 0.0 2.0 0.09 0.37 0.33 94 1003.7
20260506212054 60 0 0.0 2.0 0.09 0.36 0.32 94 1003.7
20260506211554 60 0 0.0 2.0 0.09 0.36 0.32 94 1003.7
20260506211052 60 27 0.0 1.0 0.09 0.35 0.31 94 1003.6
20260506210551 60 0 0.0 1.0 0.09 0.35 0.31 94 1003.7
20260506210055 60 0 0.0 0.0 0.09 0.35 0.31 94 1003.8
20260506205551 59 0 0.0 0.0 0.08 0.34 0.30 94 1003.7
20260506205048 59 0 0.0 0.0 0.08 0.33 0.29 94 1003.9
20260506204604 59 0 0.0 0.0 0.08 0.33 0.29 93 1003.9
20260506204048 60 0 0.0 0.0 0.07 0.31 0.27 93 1004.0
20260506203548 60 0 0.0 1.0 0.06 0.30 0.26 93 1004.0
20260506203055 60 0 0.0 1.0 0.06 0.29 0.25 93 1004.2
20260506202548 60 0 0.0 3.0 0.05 0.28 0.24 93 1004.0
20260506202051 60 0 0.0 5.0 0.05 0.27 0.23 93 1004.0
20260506201555 60 0 0.0 5.0 0.05 0.27 0.23 93 1004.2
20260506201052 60 0 0.0 5.0 0.05 0.26 0.22 93 1004.3
20260506200550 60 0 0.0 2.0 0.05 0.26 0.22 93 1004.3
20260506200055 60 0 0.0 0.0 0.06 0.26 0.22 93 1004.3
20260506195551 60 0 0.0 0.0 0.06 0.26 0.22 94 1004.2
20260506195054 60 0 0.0 0.0 0.05 0.25 0.21 94 1004.4
20260506194606 60 0 0.0 0.0 0.06 0.25 0.21 94 1004.4
20260506194050 60 0 0.0 0.0 0.05 0.24 0.20 94 1004.5
20260506193551 60 0 0.0 6.0 0.06 0.24 0.20 94 1004.6
20260506193057 60 0 0.0 6.0 0.05 0.23 0.19 93 1004.7
20260506192551 60 0 0.0 0.0 0.06 0.23 0.19 93 1004.7
20260506192048 60 0 0.0 0.0 0.05 0.22 0.18 93 1004.6
20260506191552 60 0 0.0 0.0 0.04 0.21 0.17 93 1004.8
20260506191047 60 0 0.0 1.0 0.05 0.21 0.17 93 1004.8
20260506190550 60 0 0.0 1.0 0.05 0.21 0.17 93 1004.9
20260506190053 60 0 0.0 1.0 0.05 0.20 0.16 93 1004.7
20260506185547 60 0 0.0 3.0 0.06 0.20 0.16 93 1004.7
20260506185050 60 0 0.0 3.0 0.07 0.20 0.16 93 1004.8
20260506184557 60 0 0.0 3.0 0.06 0.19 0.15 94 1004.9
20260506184051 60 0 0.0 1.0 0.07 0.19 0.15 94 1005.0
20260506183552 60 0 0.0 5.0 0.07 0.18 0.14 93 1005.3
20260506183100 60 0 0.0 5.0 0.08 0.18 0.14 93 1005.1
20260506182551 60 96 0.0 2.0 0.08 0.17 0.13 93 1005.1
20260506182051 60 0 0.0 2.0 0.08 0.17 0.13 93 1005.2
20260506181552 60 0 0.0 4.0 0.09 0.17 0.13 93 1005.5
20260506181048 60 0 0.0 4.0 0.08 0.16 0.12 93 1005.4
20260506180548 60 0 0.0 4.0 0.09 0.16 0.12 92 1005.7
20260506180052 60 0 0.0 1.0 0.09 0.15 0.11 92 1005.6
20260506175548 60 0 0.0 1.0 0.08 0.14 0.10 92 1005.7
20260506175054 60 0 0.0 0.0 0.08 0.13 0.09 91 1005.8
20260506174552 60 0 0.0 0.0 0.08 0.13 0.09 91 1005.8
20260506174052 61 0 0.0 0.0 0.07 0.12 0.08 90 1005.8
20260506173551 61 0 0.0 0.0 0.07 0.11 0.07 90 1005.8
20260506173054 61 0 0.0 0.0 0.06 0.10 0.06 89 1005.9
20260506172550 61 0 0.0 0.0 0.05 0.09 0.05 88 1006.0
20260506172051 61 0 0.0 0.0 0.05 0.09 0.05 88 1006.1
20260506171557 61 0 0.0 0.0 0.04 0.08 0.04 87 1006.0
20260506171051 62 0 0.0 0.0 0.04 0.08 0.04 87 1006.2
20260506170552 62 0 0.0 0.0 0.03 0.07 0.03 86 1006.2
20260506170059 62 0 0.0 0.0 0.02 0.06 0.02 86 1006.2
20260506165548 62 0 0.0 0.0 0.02 0.06 0.02 86 1006.1
20260506165241 62 0 0.0 0.0 0.01 0.05 0.01 86 1006.2
20260506164558 62 0 0.0 0.0 0.01 0.05 0.01 85 1006.3
20260506164053 62 0 0.0 0.0 0.01 0.05 0.01 84 1006.1
20260506163553 62 0 0.0 0.0 0.00 0.04 0.00 83 1006.3
20260506163105 62 0 0.0 0.0 0.00 0.04 0.00 82 1006.3
20260506162551 62 0 0.0 0.0 0.00 0.04 0.00 82 1006.3
20260506162051 62 0 0.0 0.0 0.00 0.04 0.00 82 1006.2
20260506161606 62 0 0.0 0.0 0.00 0.04 0.00 83 1006.6
20260506161055 62 0 0.0 0.0 0.00 0.04 0.00 84 1006.4
20260506160551 62 0 0.0 0.0 0.00 0.04 0.00 84 1006.6
20260506160058 62 0 0.0 0.0 0.00 0.04 0.00 83 1006.9
20260506155647 0 0.0 0.0 0.00 0.04 0.00 1007.2
20260506154052 62 0 0.0 0.0 0.00 0.04 0.00 81 1007.5
20260506153552 62 0 0.0 0.0 0.00 0.04 0.00 80 1007.7
20260506153055 62 0 0.0 0.0 0.00 0.04 0.00 80 1007.7
20260506152552 61 0 0.0 0.0 0.00 0.04 0.00 79 1007.6
20260506152052 61 0 0.0 0.0 0.00 0.04 0.00 79 1007.6
20260506151554 61 0 0.0 0.0 0.00 0.04 0.00 79 1007.4
20260506151051 61 0 0.0 0.0 0.00 0.04 0.00 79 1007.5
20260506150551 61 0 0.0 0.0 0.00 0.04 0.00 80 1007.3
20260506150054 61 0 0.0 0.0 0.00 0.04 0.00 80 1007.4
20260506145554 61 0 0.0 0.0 0.00 0.04 0.00 80 1007.2
20260506145053 61 0 0.0 0.0 0.00 0.04 0.00 80 1007.5
20260506144601 61 0 0.0 1.0 0.00 0.04 0.00 80 1007.6
20260506144052 61 0 0.0 1.0 0.00 0.04 0.00 80 1007.7
20260506143551 61 0 0.0 3.0 0.00 0.04 0.00 80 1007.5
20260506143053 61 0 0.0 3.0 0.00 0.04 0.00 79 1007.5
20260506142552 61 0 0.0 3.0 0.00 0.04 0.00 79 1007.5
20260506142051 61 0 0.0 3.0 0.00 0.04 0.00 80 1007.5
20260506141603 61 0 0.0 0.0 0.00 0.04 0.00 80 1007.6
20260506141054 61 0 0.0 0.0 0.00 0.04 0.00 80 1007.6
20260506140552 61 0 0.0 0.0 0.00 0.04 0.00 79 1007.6
20260506140109 61 0 0.0 0.0 0.00 0.04 0.00 80 1007.6
20260506135552 61 0 0.0 0.0 0.00 0.04 0.00 80 1007.3
20260506135051 60 0 0.0 2.0 0.00 0.04 0.00 80 1007.5
20260506134558 60 0 0.0 2.0 0.00 0.04 0.00 80 1007.7
20260506134053 61 0 0.0 2.0 0.00 0.04 0.00 80 1007.7
20260506133551 61 0 0.0 0.0 0.00 0.04 0.00 81 1007.7
20260506133102 60 0 0.0 0.0 0.00 0.04 0.00 81 1007.9
20260506132551 60 0 0.0 0.0 0.00 0.04 0.00 81 1007.9
20260506132051 60 0 0.0 0.0 0.00 0.04 0.00 81 1008.0
20260506131554 60 0 0.0 0.0 0.00 0.04 0.00 82 1007.8
20260506131054 60 0 0.0 1.0 0.00 0.04 0.00 81 1008.0
20260506130551 60 0 0.0 1.0 0.00 0.04 0.00 81 1008.0
20260506130054 60 0 0.0 1.0 0.00 0.04 0.00 82 1007.8
20260506125552 60 0 0.0 0.0 0.00 0.04 0.00 82 1007.7
20260506125051 60 0 0.0 0.0 0.00 0.04 0.00 82 1007.8
20260506124555 59 0 0.0 0.0 0.00 0.04 0.00 82 1007.9
20260506124051 59 0 0.0 0.0 0.00 0.04 0.00 83 1007.9
20260506123554 59 0 0.0 0.0 0.00 0.04 0.00 83 1007.6
20260506123054 59 0 0.0 0.0 0.00 0.04 0.00 83 1007.7
20260506122551 59 0 0.0 0.0 0.00 0.04 0.00 83 1007.8
20260506122052 59 0 0.0 0.0 0.00 0.04 0.00 84 1007.9
20260506121553 59 0 0.0 0.0 0.00 0.04 0.00 85 1007.9
20260506121051 58 0 0.0 1.0 0.00 0.04 0.00 85 1008.1
20260506120552 58 0 0.0 1.0 0.00 0.04 0.00 86 1008.1
20260506120057 58 0 0.0 1.0 0.00 0.04 0.00 87 1008.1
20260506115548 58 0 0.0 0.0 0.00 0.04 0.00 88 1007.9
20260506115048 57 0 0.0 0.0 0.00 0.04 0.00 90 1008.1
20260506114600 57 0 0.0 1.0 0.00 0.04 0.00 91 1008.0
20260506114048 56 0 0.0 1.0 0.00 0.04 0.00 93 1008.1
20260506113552 56 0 0.0 1.0 0.00 0.04 0.00 94 1008.0
20260506113101 56 0 0.0 0.0 0.00 0.04 0.00 95 1007.9
20260506112553 55 0 0.0 0.0 0.00 0.04 0.00 94 1008.1
20260506112052 55 0 0.0 0.0 0.00 0.04 0.00 94 1008.1
20260506111555 55 0 0.0 0.0 0.00 0.04 0.00 95 1008.0
20260506111051 55 0 0.0 0.0 0.00 0.04 0.00 95 1008.1
20260506110553 55 0 0.0 0.0 0.00 0.04 0.00 95 1008.0
20260506110054 55 0 0.0 0.0 0.00 0.04 0.00 94 1007.9
20260506105549 54 0 0.0 0.0 0.00 0.04 0.00 94 1008.0
20260506105051 54 0 0.0 0.0 0.00 0.04 0.00 94 1008.0
20260506104558 54 0 0.0 0.0 0.00 0.04 0.00 94 1008.0
20260506104052 54 0 0.0 0.0 0.00 0.04 0.00 94 1008.0
20260506103549 54 0 0.0 0.0 0.00 0.04 0.00 94 1008.3
20260506103059 54 0 0.0 0.0 0.00 0.04 0.00 94 1008.2
20260506102552 54 0 0.0 0.0 0.00 0.04 0.00 94 1007.9
20260506102048 54 0 0.0 0.0 0.00 0.04 0.00 94 1008.0
20260506101552 54 0 0.0 0.0 0.00 0.04 0.00 94 1008.0
20260506101052 54 0 0.0 0.0 0.00 0.04 0.00 93 1007.9
20260506100551 54 0 0.0 0.0 0.00 0.04 0.00 93 1007.9
20260506100056 54 0 0.0 0.0 0.00 0.04 0.00 93 1007.8
20260506095552 54 0 0.0 0.0 0.00 0.04 0.00 93 1007.8
20260506095052 55 0 0.0 0.0 0.00 0.04 0.00 93 1007.8
20260506094553 55 0 0.0 0.0 0.00 0.04 0.00 93 1007.9
20260506094051 55 0 0.0 0.0 0.00 0.04 0.00 93 1007.9
20260506093555 55 0 0.0 0.0 0.00 0.04 0.00 93 1008.0
20260506093053 55 0 0.0 0.0 0.00 0.04 0.00 93 1007.8
20260506092552 55 0 0.0 0.0 0.00 0.04 0.00 93 1007.9
20260506092049 55 0 0.0 0.0 0.00 0.04 0.00 93 1008.0
20260506091557 55 0 0.0 0.0 0.00 0.04 0.00 93 1008.0
20260506091050 55 0 0.0 0.0 0.00 0.04 0.00 93 1007.9
20260506090552 56 0 0.0 0.0 0.00 0.04 0.00 93 1007.7
20260506090051 56 0 0.0 0.0 0.00 0.04 0.00 93 1007.9
20260506085551 56 0 0.0 0.0 0.00 0.04 0.00 93 1008.0
20260506085052 56 0 0.0 0.0 0.00 0.04 0.00 93 1008.0
20260506084555 56 0 0.0 0.0 0.00 0.04 0.00 93 1008.0
20260506084051 56 0 0.0 0.0 0.00 0.04 0.00 93 1008.1
20260506083550 56 0 0.0 0.0 0.00 0.04 0.00 93 1008.2
20260506083055 56 0 0.0 0.0 0.00 0.04 0.00 93 1008.0
20260506082551 56 0 0.0 0.0 0.00 0.04 0.00 93 1008.0
20260506082050 56 0 0.0 0.0 0.00 0.04 0.00 93 1007.9
20260506081558 56 0 0.0 0.0 0.00 0.04 0.00 93 1007.9
20260506081052 56 0 0.0 0.0 0.00 0.04 0.00 93 1008.1
20260506080552 56 0 0.0 0.0 0.00 0.04 0.00 93 1008.1
20260506073056 56 0 0.0 0.0 0.00 0.04 0.00 94 1008.2
20260506072551 55 0 0.0 0.0 0.00 0.04 0.00 94 1008.2
20260506072051 55 0 0.0 0.0 0.00 0.04 0.00 94 1008.1
20260506071559 55 0 0.0 0.0 0.00 0.04 0.00 94 1007.9
20260506071051 55 0 0.0 0.0 0.00 0.04 0.00 94 1008.0
20260506070551 55 0 0.0 0.0 0.00 0.04 0.00 94 1007.9
20260506062052 56 0 0.0 0.0 0.00 0.04 0.00 93 1007.9
20260506061557 56 0 0.0 0.0 0.00 0.04 0.00 93 1007.9
20260506061053 56 0 0.0 0.0 0.00 0.04 0.00 93 1007.7
20260506060551 56 0 0.0 0.0 0.00 0.04 0.00 93 1007.7
20260506051052 57 0 0.0 0.0 0.00 0.04 0.00 92 1007.8
20260506050552 57 0 0.0 0.0 0.00 0.04 0.00 92 1007.9
20260506045054 57 0 0.0 0.0 0.00 0.04 0.00 91 1007.8
20260506044639 57 0 0.0 0.0 0.00 0.04 0.00 91 1007.9
20260506044053 57 0 0.0 0.0 0.00 0.04 0.00 91 1007.8
20260506043551 57 0 0.0 0.0 0.00 0.04 0.00 91 1007.8
20260506043053 57 0 0.0 0.0 0.00 0.04 0.00 91 1007.7
20260506042551 57 0 0.0 0.0 0.00 0.04 0.00 91 1007.7
20260506042051 58 0 0.0 0.0 0.00 0.04 0.00 91 1007.7
20260506041554 58 0 0.0 0.0 0.00 0.04 0.00 90 1007.7
20260506041052 58 0 0.0 0.0 0.00 0.04 0.00 90 1007.7
20260506040551 58 0 0.0 0.0 0.00 0.04 0.00 89 1007.6
20260506040057 58 0 0.0 0.0 0.00 0.04 0.00 89 1007.8
20260506035624 58 0 0.0 0.0 0.00 0.04 0.04 89 1007.5
20260506035051 58 0 0.0 0.0 0.00 0.04 0.04 89 1007.6
20260506034556 58 0 0.0 0.0 0.00 0.04 0.04 89 1007.6
20260506034049 58 0 0.0 0.0 0.00 0.04 0.04 89 1007.8
20260506033548 58 0 0.0 0.0 0.00 0.04 0.04 89 1007.7
20260506033057 58 0 0.0 0.0 0.00 0.04 0.04 89 1007.8
20260506032552 58 0 0.0 0.0 0.00 0.04 0.04 89 1007.9
20260506032052 58 0 0.0 0.0 0.00 0.04 0.04 89 1007.8
20260506031556 58 0 0.0 0.0 0.00 0.04 0.04 89 1007.7
20260506031052 58 0 0.0 0.0 0.00 0.04 0.04 89 1007.8
20260506030552 58 0 0.0 0.0 0.00 0.04 0.04 88 1007.9
20260506030059 58 0 0.0 0.0 0.00 0.04 0.04 88 1007.9
20260506025551 58 0 0.0 0.0 0.00 0.04 0.04 88 1007.8
20260506025051 58 0 0.0 0.0 0.00 0.04 0.04 88 1007.8
20260506024600 58 0 0.0 0.0 0.00 0.04 0.04 88 1007.6
20260506024048 58 0 0.0 0.0 0.00 0.04 0.04 87 1007.7
20260506023553 59 0 0.0 0.0 0.00 0.04 0.04 86 1007.7
20260506023100 59 0 0.0 0.0 0.00 0.04 0.04 86 1007.6
20260506022548 59 0 0.0 0.0 0.00 0.04 0.04 86 1007.5
20260506022052 59 0 0.0 0.0 0.00 0.04 0.04 86 1007.6
20260506021607 59 0 0.0 0.0 0.00 0.04 0.04 86 1007.6
20260506021052 59 0 0.0 0.0 0.00 0.04 0.04 86 1007.6
20260506020547 59 0 0.0 1.0 0.00 0.04 0.04 86 1007.6
20260506020059 59 0 0.0 1.0 0.00 0.04 0.04 86 1007.4
20260506015553 59 0 0.0 0.0 0.00 0.04 0.04 85 1007.4
20260506015053 60 0 0.0 0.0 0.00 0.04 0.04 85 1007.5
20260506014557 60 0 0.0 0.0 0.00 0.04 0.04 84 1007.5
20260506014051 60 0 0.0 0.0 0.00 0.04 0.04 84 1007.6
20260506013548 60 0 0.0 0.0 0.00 0.04 0.04 83 1007.6
20260506013059 60 0 0.0 0.0 0.00 0.04 0.04 84 1007.6
20260506012548 60 0 0.0 0.0 0.00 0.04 0.04 85 1007.7
20260506012048 60 0 0.0 0.0 0.00 0.04 0.04 85 1007.7
20260506011553 60 0 0.0 0.0 0.00 0.04 0.04 85 1007.5
20260506011049 60 0 0.0 0.0 0.00 0.04 0.04 84 1007.5
20260506010549 60 0 0.0 0.0 0.00 0.04 0.04 85 1007.4
20260506010115 60 0 0.0 0.0 0.00 0.04 0.04 85 1007.2
20260506005548 60 0 0.0 0.0 0.00 0.04 0.04 83 1007.2
20260506005051 60 0 0.0 0.0 0.00 0.04 0.04 83 1007.2
20260506004557 60 0 0.0 0.0 0.00 0.04 0.04 83 1007.1
20260506004123 60 0 0.0 0.0 0.00 0.04 0.04 83 1007.2